Regional Weather Roundup
Issued by NWS Charleston, SC

Current Version | Previous Version | Graphics & Text | Print | Product List | Glossary On
Versions: 1 2 3 4 5 6 7 8 9 10 11 12 13 14 15 16 17 18 19 20 21 22 23 24 25 26 27 28 29 30 31 32 33 34 35 36 37 38 39 40 41 42 43 44 45 46 47 48 49 50
000
ASUS42 KCHS 281010
RWRCHS

REGIONAL WEATHER ROUNDUP
NATIONAL WEATHER SERVICE CHARLESTON SC
500 AM EST WED JAN 28 2015

NOTE: "FAIR" INDICATES FEW OR NO CLOUDS BELOW 12,000 FEET WITH NO
SIGNIFICANT WEATHER AND/OR OBSTRUCTIONS TO VISIBILITY.

NOT ALL STATIONS ARE QUALITY CONTROLLED BY THE NATIONAL
WEATHER SERVICE. USE DATA WITH CAUTION...ESPECIALLY
DEWPOINT OBSERVATIONS.

SCZ027-030-031-034>040-042>050-281100-
...SOUTHEAST SOUTH CAROLINA...

CITY           SKY/WX    TMP DP  RH WIND       PRES   REMARKS
N CHARLESTON   CLEAR     30  25  81 NW6       30.11R WCI  24
WATERFRONT PRK   N/A     37 N/A N/A NW5         N/A  WCI  34
MOUNT PLEASANT LGT RAIN N/A N/A N/A N6        30.10R
PINOPOLIS      NOT AVBL
MONCKS CORNER  FAIR      39  25  56 N8        30.10R WCI  34
SUMMERVILLE    NOT AVBL
BEAUFORT MCAS  CLEAR     37  27  67 NW7       30.12R WCI  32
BEAUFORT ARPT  FAIR      36  30  80 NW7       30.12R WCI  30
HILTON HEAD IS NOT AVBL
WALTERBORO     SUNNY     30  30 100 CALM      30.13R
ALLENDALE      FAIR      34  27  75 CALM      30.12R

...SOUTHERN MIDLANDS AND PEE DEE...

CITY           SKY/WX    TMP DP  RH WIND       PRES   REMARKS
GEORGETOWN     NOT AVBL
KINGSTREE      NOT AVBL
ORANGEBURG     CLEAR     30  24  78 CALM      30.11R
BARNWELL       FAIR      32  27  80 NW3       30.13R
AIKEN          FAIR      28  27  93 W5        30.14R WCI  23
MANNING        FAIR      30  28  93 CALM      30.11R
COLUMBIA       CLEAR     34  20  56 VRB3      30.12R
SUMTER         CLEAR     31  19  59 N6        30.10R WCI  26
FLORENCE       CLEAR     31  16  54 N9        30.11R WCI  23
MYRTLE BEACH   CLEAR     34  16  47 NW8       30.11R WCI  27
N MYRTLE BEACH CLEAR     31  17  56 VRB5      30.08R WCI  26

$$

GAZ063-065-086>088-099>101-113>116-118-119-134>141-150-281100-
...SOUTHEAST GEORGIA...

CITY           SKY/WX    TMP DP  RH WIND       PRES   REMARKS
SAVANNAH ARPT  CLEAR     34  27  75 NW5       30.12R WCI  30
HUNTER AAF     CLEAR     36  29  76 NW6       30.10R WCI  31
FORT STEWART   CLEAR     33  29  83 NW3       30.12R
STATESBORO     CLEAR     29  29 100 CALM      30.13R
SYLVANIA       SUNNY     31  31 100 CALM      30.14R
CLAXTON        FAIR      32  32 100 W3        30.14R

...CSRA...CENTRAL AND FAR SOUTHEAST GEORGIA...

CITY           SKY/WX    TMP DP  RH WIND       PRES   REMARKS
THOMSON        FAIR      29  29  99 CALM      30.17R
AUGUSTA-BUSH   CLEAR     25  22  88 CALM      30.14R
AUGUSTA-DANIEL CLEAR     34  27  75 NW5       30.13R WCI  30
SWAINSBORO     FAIR      32  30  93 CALM      30.14R
VIDALIA        CLEAR     34  32  93 NW3       30.14R
EASTMAN        FAIR      30  30 100 CALM      30.18R
HAZLEHURST     FAIR      34  34 100 W3        30.14R
ALMA           CLEAR     34  29  82 W3        30.14R
WAYCROSS       CLEAR     37  34  88 N6        30.14R WCI  32
JESUP          FAIR      36  34  93 CALM      30.13R
BAXLEY         FAIR      36  32  87 NW3       30.13R
BRUNSWICK      CLEAR     36  32  87 W3        30.13R
SAINT SIMONS   CLEAR     39  30  70 VRB7      30.12R WCI  34

$$

SCZ027-028-034-036>038-045-046-048>050-GAZ119-141-281100-
...LAKE AND SUPPLEMENTAL COASTAL OBSERVATIONS...

STATION/POSITION TIME  TEMP    WIND        PRES    WAVE   SWELL
                       AIR SEA DIR/SP/G            HT/PER HT/PER/DIR
                 (UTC) (F)     (DEG/KT/KT) (MB)    (FT/S) (FT/S/D)
UPR LAKE MARION  NOT AVBL
WINYAH BAY       0845   36     340/  5     1017.0
LAKE MURRAY      0900   31      CALM  /  3 1018.6R
ACE BASIN NERRS  NOT AVBL
FORT PULASKI     0900   40 52  330/ 10/ 13 1019.6R
SAPELO ISLAND    0900   39     330/  7     1019.0S

$$

ANZ835-935-AMZ111-154-330-350-352-354-370-450-454-472-281100-
...C-MAN AND BUOY OBSERVATIONS...

STATION/POSITION TIME  TEMP    WIND        PRES    WAVE   SWELL
                       AIR SEA DIR/SP/G            HT/PER HT/PER/DIR
                 (UTC) (F)     (DEG/KT/KT) (MB)    (FT/S) (FT/S/D)
BUOY 41004       0950   46 67  350/ 21/ 25 1017.2R   6/ 5   2/11
BUOY 41008       0950   45 54  360/ 17/ 19 1018.7R   3/ 4
FOLLY BEACH CMAN 0900   39     330/  7/ 10 1018.9R
CAPERS NEARSHORE 0900   41     350/ 14/ 17   N/A
FRIPP NEARSHORE  0900   42     360/ 17/ 19   N/A


STATION/POSITION TIME  TEMP    WIND        PRES    WAVE   SWELL
                       AIR SEA DIR/SP/G            HT/PER HT/PER/DIR
                 (UTC) (F)     (DEG/KT/KT) (MB)    (FT/S) (FT/S/D)
5E ST. MARYS GA  0922      58                N/A     3/ 4
FRYING PAN BUOY  0950   42 65  350/ 21/ 25 1017.1R   6/ 5   2/ 90/ 9
BUOY 41025       0950   39 67  340/ 19/ 25 1014.9R   9/13   8/ 50/13
CAPE LOOKOUT NC  0900   36     340/ 15/ 17 1015.7R
BUOY 41002       0950   57 71  310/ 23/ 29 1012.3F  11/14   7/14
BUOY 41010       0920   62 75  310/ 19/ 23 1015.6R
ST AUGUSTINE FL  1000   43     330/ 10/ 10 1019.8R


$$



USA.gov is the U.S. government's official web portal to all federal, state and local government web resources and services.